DLH23P EDDF-KBOS

Flight info

Callsign DLH23P
Flight time N/A
Altitude 40000
Route OBOKA5G/25C OBOKA Z29 TORNU DCT VICOT DCT GALSO Q63 ERING L179 UGBET Q60 OKSAW DCT BIBPE DCT TIGWE DCT FELCA DCT FADZU DCT NICXI DCT OFSOX DCT SLANY DCT DIMUS DCT MALOT/M084F390 DCT 54N020W 54N030W 54N040W 53N050W DCT RIKAL/N0492F400 N572A TOPPS DCT AJJAY OOSHN5
Aircraft A359/H-SDE2E3GHIJ3J4J5LM1ORWXY/LB1D1

Departure

Time 2026-05-04 20:25
Airport Frankfurt Main Airport (EDDF)

Arrival

Time N/A
Airport Boston Logan International Airport (KBOS)
Time Latitude Longitude Altitude Speed Heading
2026-05-04 19:34 50.04640 8.56653 370 ft 0 kts 115°
2026-05-04 20:03 50.04647 8.56629 364 ft 4 kts 115°
2026-05-04 20:03 50.04658 8.56591 368 ft 4 kts 122°
2026-05-04 20:03 50.04676 8.56562 369 ft 4 kts 152°
2026-05-04 20:04 50.04699 8.56551 364 ft 4 kts 186°
2026-05-04 20:04 50.04712 8.56556 365 ft 0 kts 205°
2026-05-04 20:12 50.04704 8.56550 362 ft 3 kts 204°
2026-05-04 20:12 50.04666 8.56526 370 ft 8 kts 202°
2026-05-04 20:12 50.04601 8.56476 370 ft 13 kts 204°
2026-05-04 20:12 50.04522 8.56386 370 ft 16 kts 237°
2026-05-04 20:13 50.04495 8.56293 367 ft 0 kts 249°
2026-05-04 20:13 50.04492 8.56281 366 ft 3 kts 249°
2026-05-04 20:13 50.04479 8.56230 370 ft 8 kts 249°
2026-05-04 20:13 50.04454 8.56125 370 ft 12 kts 250°
2026-05-04 20:14 50.04398 8.56040 368 ft 13 kts 187°
2026-05-04 20:14 50.04306 8.56094 367 ft 14 kts 128°
2026-05-04 20:14 50.04250 8.56227 367 ft 17 kts 148°
2026-05-04 20:14 50.04154 8.56299 367 ft 5 kts 117°
2026-05-04 20:15 50.04153 8.56378 366 ft 10 kts 87°
2026-05-04 20:15 50.04178 8.56495 369 ft 13 kts 68°
2026-05-04 20:15 50.04181 8.56507 369 ft 0 kts 69°
2026-05-04 20:16 50.04186 8.56524 368 ft 4 kts 69°
2026-05-04 20:16 50.04203 8.56602 365 ft 11 kts 70°
2026-05-04 20:16 50.04214 8.56648 367 ft 0 kts 70°
2026-05-04 20:18 50.04221 8.56676 371 ft 6 kts 70°
2026-05-04 20:19 50.04243 8.56767 371 ft 12 kts 69°
2026-05-04 20:19 50.04279 8.56917 369 ft 18 kts 69°
2026-05-04 20:19 50.04330 8.57134 372 ft 23 kts 70°
2026-05-04 20:19 50.04383 8.57352 372 ft 15 kts 69°
2026-05-04 20:20 50.04428 8.57537 369 ft 21 kts 70°
2026-05-04 20:20 50.04485 8.57775 376 ft 26 kts 69°
2026-05-04 20:20 50.04535 8.57987 375 ft 12 kts 71°
2026-05-04 20:20 50.04571 8.58143 372 ft 9 kts 70°
2026-05-04 20:21 50.04572 8.58147 376 ft 0 kts 70°
2026-05-04 20:21 50.04574 8.58158 375 ft 3 kts 70°
2026-05-04 20:21 50.04620 8.58339 375 ft 15 kts 70°
2026-05-04 20:22 50.04647 8.58525 375 ft 18 kts 111°
2026-05-04 20:22 50.04609 8.58580 375 ft 1 kts 153°
2026-05-04 20:22 50.04579 8.58597 376 ft 9 kts 160°
2026-05-04 20:22 50.04505 8.58617 377 ft 4 kts 213°
2026-05-04 20:23 50.04475 8.58537 376 ft 13 kts 249°
2026-05-04 20:23 50.04467 8.58503 376 ft 0 kts 250°
2026-05-04 20:24 50.04459 8.58468 376 ft 15 kts 249°
2026-05-04 20:25 50.04347 8.58000 378 ft 80 kts 249°
2026-05-04 20:25 50.04127 8.57077 374 ft 130 kts 249°
2026-05-04 20:25 50.03783 8.55630 392 ft 173 kts 250°
2026-05-04 20:25 50.03383 8.53909 1007 ft 174 kts 252°
2026-05-04 20:26 50.03018 8.52117 1721 ft 173 kts 255°
2026-05-04 20:26 50.02774 8.50243 2140 ft 186 kts 268°
2026-05-04 20:26 50.02830 8.48127 2492 ft 203 kts 276°
2026-05-04 20:26 50.02974 8.45906 2951 ft 213 kts 276°
2026-05-04 20:27 50.02963 8.43643 3439 ft 221 kts 262°
2026-05-04 20:27 50.02676 8.41149 3840 ft 238 kts 258°
2026-05-04 20:27 50.02343 8.38541 4357 ft 249 kts 258°
2026-05-04 20:27 50.02017 8.35871 5023 ft 255 kts 258°
2026-05-04 20:28 50.01686 8.33125 5725 ft 260 kts 257°
2026-05-04 20:28 50.01375 8.30355 6475 ft 263 kts 260°
2026-05-04 20:28 50.01455 8.27463 7227 ft 271 kts 282°
2026-05-04 20:28 50.02112 8.24747 8016 ft 276 kts 291°
2026-05-04 20:29 50.02927 8.22010 8833 ft 278 kts 291°
2026-05-04 20:29 50.03744 8.19274 9682 ft 280 kts 291°
2026-05-04 20:29 50.04568 8.16475 10349 ft 289 kts 290°
2026-05-04 20:29 50.05426 8.13546 10703 ft 309 kts 291°
2026-05-04 20:30 50.06569 8.10632 11067 ft 330 kts 304°
2026-05-04 20:30 50.07921 8.07995 11545 ft 342 kts 306°
2026-05-04 20:30 50.09439 8.05099 12182 ft 349 kts 306°
2026-05-04 20:30 50.10972 8.02142 12822 ft 356 kts 306°
2026-05-04 20:31 50.12550 7.99083 13541 ft 361 kts 306°
2026-05-04 20:31 50.14130 7.96018 14192 ft 365 kts 306°
2026-05-04 20:31 50.15724 7.92918 14898 ft 367 kts 305°
2026-05-04 20:31 50.17300 7.89849 15605 ft 369 kts 305°
2026-05-04 20:32 50.18934 7.86656 16259 ft 372 kts 305°
2026-05-04 20:32 50.20555 7.83486 16915 ft 376 kts 305°
2026-05-04 20:32 50.22179 7.80306 17580 ft 380 kts 305°
2026-05-04 20:32 50.23796 7.77137 18179 ft 383 kts 305°
2026-05-04 20:33 50.25662 7.74060 18794 ft 391 kts 319°
2026-05-04 20:33 50.28044 7.71939 19403 ft 398 kts 333°
2026-05-04 20:33 50.30602 7.70224 19956 ft 403 kts 334°
2026-05-04 20:33 50.33209 7.68479 20541 ft 407 kts 334°
2026-05-04 20:34 50.35816 7.66714 21140 ft 411 kts 334°
2026-05-04 20:34 50.38456 7.64919 21716 ft 414 kts 333°
2026-05-04 20:34 50.41112 7.63099 22320 ft 417 kts 333°
2026-05-04 20:34 50.43770 7.61272 22928 ft 420 kts 333°
2026-05-04 20:35 50.46459 7.59421 23508 ft 423 kts 333°
2026-05-04 20:35 50.49166 7.57555 23998 ft 427 kts 333°
2026-05-04 20:35 50.51876 7.55684 24441 ft 431 kts 333°
2026-05-04 20:35 50.54615 7.53772 24878 ft 435 kts 332°
2026-05-04 20:36 50.57277 7.51467 25334 ft 435 kts 324°
2026-05-04 20:36 50.59825 7.48878 25776 ft 438 kts 323°
2026-05-04 20:36 50.62389 7.46247 26259 ft 442 kts 323°
2026-05-04 20:36 50.64991 7.43576 26617 ft 448 kts 322°
2026-05-04 20:37 50.67560 7.40939 27068 ft 451 kts 322°
2026-05-04 20:37 50.70150 7.38275 27532 ft 454 kts 322°
2026-05-04 20:37 50.72674 7.35317 27932 ft 453 kts 314°
2026-05-04 20:37 50.74821 7.31735 28354 ft 449 kts 302°
2026-05-04 20:38 50.76527 7.27605 28781 ft 445 kts 294°
2026-05-04 20:38 50.78004 7.23290 29208 ft 447 kts 292°
2026-05-04 20:38 50.79433 7.18905 29620 ft 450 kts 291°
2026-05-04 20:38 50.80850 7.14474 30005 ft 452 kts 291°
2026-05-04 20:39 50.82268 7.10027 30367 ft 455 kts 291°
2026-05-04 20:39 50.83683 7.05601 30730 ft 457 kts 291°
2026-05-04 20:39 50.85128 7.01102 31147 ft 458 kts 291°
2026-05-04 20:39 50.86573 6.96613 31533 ft 459 kts 291°
2026-05-04 20:40 50.88036 6.92087 31855 ft 461 kts 291°
2026-05-04 20:40 50.89494 6.87567 32190 ft 463 kts 291°
2026-05-04 20:40 50.90954 6.83019 32510 ft 464 kts 291°
2026-05-04 20:40 50.92413 6.78460 32816 ft 466 kts 291°
2026-05-04 20:41 50.93891 6.73835 33118 ft 467 kts 291°
2026-05-04 20:41 50.95358 6.69235 33409 ft 469 kts 291°
2026-05-04 20:41 50.96833 6.64606 33683 ft 471 kts 291°
2026-05-04 20:41 50.98312 6.59955 33969 ft 472 kts 291°
2026-05-04 20:42 50.99780 6.55328 34117 ft 475 kts 291°
2026-05-04 20:42 51.00784 6.52163 34294 ft 475 kts 291°
2026-05-04 20:42 51.02264 6.47490 34570 ft 475 kts 291°
2026-05-04 20:42 51.04224 6.41292 34919 ft 475 kts 291°
2026-05-04 20:43 51.05228 6.38107 35086 ft 475 kts 291°
2026-05-04 20:43 51.06698 6.33438 35346 ft 475 kts 291°
2026-05-04 20:43 51.08655 6.27207 35690 ft 475 kts 292°
2026-05-04 20:43 51.09658 6.24004 35866 ft 475 kts 292°
2026-05-04 20:44 51.11129 6.19303 36070 ft 475 kts 292°
2026-05-04 20:44 51.12584 6.14642 36317 ft 475 kts 292°
2026-05-04 20:44 51.13892 6.09863 36473 ft 472 kts 285°
2026-05-04 20:44 51.14847 6.04859 36720 ft 470 kts 281°
2026-05-04 20:45 51.15696 5.99834 36925 ft 470 kts 281°
2026-05-04 20:45 51.16516 5.94811 37121 ft 470 kts 281°
2026-05-04 20:45 51.17331 5.89738 37319 ft 470 kts 281°
2026-05-04 20:45 51.18138 5.84685 37526 ft 470 kts 281°
2026-05-04 20:46 51.18951 5.79658 37717 ft 470 kts 282°
2026-05-04 20:46 51.19803 5.74690 37896 ft 471 kts 282°
2026-05-04 20:46 51.20706 5.69590 38093 ft 471 kts 283°
2026-05-04 20:46 51.21604 5.64542 38188 ft 473 kts 283°
2026-05-04 20:47 51.22498 5.59491 38339 ft 473 kts 283°
2026-05-04 20:47 51.23385 5.54439 38513 ft 473 kts 283°
2026-05-04 20:47 51.24250 5.49469 38654 ft 473 kts 283°
2026-05-04 20:47 51.25140 5.44323 38777 ft 473 kts 282°
2026-05-04 20:48 51.25997 5.39340 38895 ft 473 kts 282°
2026-05-04 20:48 51.26865 5.34271 39021 ft 473 kts 282°
2026-05-04 20:48 51.27740 5.29151 39132 ft 473 kts 282°
2026-05-04 20:48 51.28595 5.24131 39242 ft 473 kts 283°
2026-05-04 20:49 51.30325 5.13935 39356 ft 476 kts 282°
2026-05-04 20:49 51.31187 5.08831 39478 ft 475 kts 282°
2026-05-04 20:49 51.32049 5.03720 39596 ft 475 kts 282°
2026-05-04 20:50 51.33754 4.93557 39791 ft 475 kts 282°
2026-05-04 20:50 51.35461 4.83320 39949 ft 476 kts 282°
2026-05-04 20:51 51.37164 4.73043 39971 ft 479 kts 282°
2026-05-04 20:51 51.38868 4.62703 39964 ft 480 kts 282°
2026-05-04 20:52 51.40557 4.52391 39969 ft 479 kts 282°
2026-05-04 20:52 51.42238 4.42065 39967 ft 479 kts 282°
2026-05-04 20:53 51.43913 4.31711 39966 ft 479 kts 282°
2026-05-04 20:53 51.45579 4.21348 39965 ft 479 kts 282°
2026-05-04 20:54 51.47225 4.11050 39967 ft 479 kts 282°
2026-05-04 20:54 51.49392 4.00943 39966 ft 482 kts 291°
2026-05-04 20:55 51.52191 3.91121 39969 ft 482 kts 292°
2026-05-04 20:55 51.55030 3.81358 39976 ft 481 kts 292°
2026-05-04 20:56 51.57845 3.71618 39976 ft 481 kts 292°
2026-05-04 20:56 51.60648 3.61844 39979 ft 481 kts 292°
2026-05-04 20:57 51.63446 3.52035 39976 ft 481 kts 292°
2026-05-04 20:57 51.66231 3.42231 39983 ft 481 kts 292°
2026-05-04 20:58 51.68994 3.32464 39984 ft 481 kts 292°
2026-05-04 20:58 51.71605 3.22503 39996 ft 479 kts 285°
2026-05-04 20:59 51.72627 3.12010 39993 ft 473 kts 268°
2026-05-04 20:59 51.72009 3.01530 40003 ft 472 kts 261°
2026-05-04 21:00 51.71080 2.91068 40007 ft 472 kts 260°
2026-05-04 21:00 51.70117 2.80584 40012 ft 473 kts 260°
2026-05-04 21:01 51.69166 2.70059 40020 ft 473 kts 260°
2026-05-04 21:01 51.68272 2.60025 40009 ft 473 kts 260°
2026-05-04 21:02 51.67325 2.49504 40013 ft 473 kts 260°
2026-05-04 21:02 51.66371 2.39007 40020 ft 473 kts 260°
2026-05-04 21:03 51.65402 2.28556 40019 ft 474 kts 260°
2026-05-04 21:03 51.64417 2.18025 40016 ft 474 kts 260°
2026-05-04 21:04 51.63429 2.07503 40025 ft 474 kts 260°
2026-05-04 21:04 51.62459 1.97010 40024 ft 474 kts 260°
2026-05-04 21:05 51.61488 1.86517 40027 ft 474 kts 260°
2026-05-04 21:05 51.60500 1.76022 40028 ft 475 kts 260°
2026-05-04 21:06 51.59502 1.65529 40030 ft 475 kts 261°
2026-05-04 21:06 51.59347 1.54945 40034 ft 477 kts 271°
2026-05-04 21:07 51.59756 1.44285 40044 ft 477 kts 272°